Regional Weather Roundup
Issued by NWS Pendleton, OR

Home | Current Version | Previous Version | Text Only | Print | Product List | Glossary On
Versions: 1 2 3 4 5 6 7 8 9 10 11 12 13 14 15 16 17 18 19 20 21 22 23 24 25 26 27 28 29 30 31 32 33 34 35 36 37 38 39 40 41 42 43 44 45 46 47 48 49 50
000
ASUS46 KPDT 280225
RWRPDT
PENDLETON REGIONAL WEATHER ROUNDUP
NATIONAL WEATHER SERVICE PENDLETON OREGON
700 PM PDT FRI MAY 27 2016

NOTE: FAIR INDICATES FEW OR NO CLOUDS BELOW 12,000 FEET WITH NO
SIGNIFICANT WEATHER AND/OR OBSTRUCTIONS TO VISIBILITY.

# INDICATES UNOFFICIAL STATION AND DATA

WAZ520-280310-
EAST SLOPES OF WASHINGTON CASCADES

CITY            SKY/WX      TMP DP  RH  WIND    PRES   REMARKS
#CLE ELUM HS    N/A         51  38  61  W7      30.01S
#CLE ELUM 2NW   N/A         49  36  61  SW3     N/A
#GLENWOOD       N/A         54  41  61  S7      30.05R
#MANASTASH CYN  N/A         50  31  48  CALM    30.00S
#NELSON 3SW     N/A         47  37  68  CALM    30.24F
#NILE           N/A         53  35  50  SW3     29.29F
#RONALD 2NW     N/A         52  N/A N/A W1      29.93S
#TEANAWAY 4NE   N/A         52  40  63  W1      N/A
#TROUT LAKE 1NE N/A         51  40  66  NW10G25 30.09R
#TROUT LAKE 1E  N/A         52  40  63  CALM    30.05S
$$

WAZ521-280310-
SIMCOE HIGHLANDS

CITY            SKY/WX      TMP DP  RH  WIND    PRES   REMARKS
#CENTERVILLE 1SWN/A         53  39  59  W16     30.03R
#GOLDENDALE 1NE N/A         56  27  33  SW8     N/A
#GOLDENDALE 4W  N/A         56  46  69  SW16    30.10R
#GOODNOE HILLS  N/A         58  40  51  W24     29.94S
#LYLE 6NE       N/A         55  43  64  SW14G24 30.05R
$$

WAZ026-280310-
KITTITAS VALLEY

CITY            SKY/WX      TMP DP  RH  WIND    PRES   REMARKS
ELLENSBURG AP   PTCLDY      56  36  47  W24G33  30.02R
#ELLENSBURG CWU N/A         54  37  52  N13     29.96R
#ELLENSBURG 3NE N/A         53  39  59  W9      30.02R
#ELLENSBURG     N/A         56  38  51  NW10    N/A
#ELLENSBURG 1E  N/A         54  N/A N/A W2      N/A
#ELLENSBURG 13S N/A         60  32  35  SE7     N/A
#KITTITAS 4N    N/A         55  37  51  NW12    30.05S
#KITTITAS 3S    N/A         55  37  51  NW14    30.00R
#THORP 6N       N/A         50  38  63  W21G31  30.03S
$$

WAZ027-280310-
YAKIMA VALLEY

CITY            SKY/WX      TMP DP  RH  WIND    PRES   REMARKS
SUNNYSIDE AP    PTCLDY      62  35  36  W14     30.00R
YAKIMA AIRPORT  PTCLDY      64  33  31  NW10    30.01R
YAKIMA-VAGABOND SUNNY       60  31  33  N17G25  29.99R
#DONALD 2NE     N/A         65  -3   6  W3      28.85R
#GRANDVIEW      N/A         65  29  26  W2      29.99R
#MABTON         N/A         65  35  33  W8      29.99R
#NACHES 2SW     N/A         56  38  51  W6      30.02S
#TERRACE HTS    N/A         64  35  34  N9      29.96R
#TOPPENISH      N/A         64  35  34  CALM    29.91R
#WEST VALLEY    N/A         60  36  41  N7      29.98R
#W YAKIMA       N/A         58  37  45  W5      30.00R
#WHITE SWAN 5E  N/A         62  37  39  W8      30.00R
#WILEY CITY 3W  N/A         58  31  36  CALM    29.98S
$$

WAZ028-280310-
LOWER COLUMBIA BASIN...WASHINGTON

CITY            SKY/WX      TMP DP  RH  WIND    PRES   REMARKS
PASCO           PTCLDY      69  28  21  W12     29.97S
PROSSER AWOS    N/A         64  34  33  W12     30.01
RICHLAND AWOS   MOCLDY      69  33  26  NW10    29.98R
#BENTON CITY    N/A         66  34  30  W6      29.88R
#CONNELL 5N     N/A         64  33  31  W5      29.96R
#CONNELL 5NW    N/A         63  35  35  W9      29.92R
#ELTOPIA 6NW    N/A         66  38  36  NW7     28.95R
#KAHLOTUS       N/A         63  30  29  NW13    29.95S
#KENNEWICK 3S   N/A         65  40  40  N5      29.98R
#PATERSON       N/A         64  39  40  N16G24  29.96S
#SAGEMOOR 2W    N/A         65  35  33  W7      29.82R
#TOUCHET 2S     N/A         65  42  43  SW3     29.96R
#WEST PASCO     N/A         68  35  29  N1      30.02R
$$

WAZ029-280310-
FOOTHILLS OF THE BLUES...WASHINGTON

CITY            SKY/WX      TMP DP  RH  WIND    PRES   REMARKS
WALLA WALLA AP  PTCLDY      63  34  34  SW7     30.00S
#CLYDE 6NW      N/A         63  35  35  SW6     29.96S
#DAYTON SCHOOL  N/A         59  31  34  NE3     30.01S
#LOWDEN 2SE     N/A         65  42  43  W1      29.95S
#PLEASANT VIEW 1N/A         60  30  32  W2      30.01S
#PRESCOTT       N/A         64  39  40  CALM    29.96F
#SUDBURY        N/A         62  N/A N/A CALM    N/A
#WHITMAN COLLEGEN/A         64  37  37  SW3     30.03S
#WAITSBURG 5S   N/A         58  41  53  S3      30.07
#WAITSBURG 8N   N/A         58  14  17  S5      29.79F
#WALLA WALLA U  N/A         66  38  36  CALM    29.97S
#WHITMAN MISSIONN/A         65  39  38  CALM    29.98S
$$

WAZ030-280310-
BLUE MOUNTAINS...WASHINGTON

CITY            SKY/WX      TMP DP  RH  WIND    PRES   REMARKS
#DIXIE 5SE      N/A         53  37  54  SW7     29.95S
$$

ORZ009-041-WAZ024-280310-
COLUMBIA RIVER GORGE

CITY            SKY/WX      TMP DP  RH  WIND    PRES   REMARKS
HOOD RIVER AP   CLOUDY      57  43  59  W10     30.12R
THE DALLES AP   PTCLDY      62  39  43  NW15    30.08S
#ARLINGTON AIRPON/A         59  41  51  W20     30.02R
#CELILO DOT     N/A         64  40  41  SW10    N/A
#LYLE           N/A         60  45  58  W12     30.10S
#MARYHILL 2W    N/A         58  41  53  W8      N/A
#MOSIER 1S      N/A         56  31  38  W6      30.09R
#MURDOCK        N/A         60  46  60  W13     30.05S
#RUFUS DOT      N/A         63  41  44  W23     N/A
#SMITHVILLE     N/A         62  42  48  W15     30.02R

$$

ORZ510-280310-
NORTH CENTRAL OREGON

CITY            SKY/WX      TMP DP  RH  WIND    PRES   REMARKS
#ANTELOPE       N/A         55  36  49  W1      29.94R
#CHENOWITH 1W   N/A         52  39  61  W17     N/A
#COW CYN RST AREN/A         53  N/A N/A W8      N/A
#DUFUR 9E       N/A         51  38  61  NW22    30.14R
#GRASS VALLEY   N/A         51  38  61  NW2     N/A
#GRASS VALLEY 1SN/A         53  38  57  NW12    30.01S
#KENT DOT       N/A         53  28  38  N14     N/A
#MAUPIN SCHOOL  N/A         60  39  46  W10     30.09S
#MORO SCHOOL    N/A         54  41  61  W16G26  30.08R
#SHANIKO 5WSW   N/A         53  27  36  W15     N/A
#SHANIKO 4NW    N/A         50  -55  1  W15     30.07S
#TYGH VALLEY 2NEN/A         60  39  46  W3      30.05R
#WAPANITIA AIRPON/A         55  39  55  NW8     30.07S
#WASCO DOT      N/A         59  37  44  W18     N/A
#WASCO AIRPORT  N/A         58  35  42  W22     N/A
#WASCO 5NE      N/A         56  39  53  W13     30.04R
$$

ORZ511-280310-
CENTRAL OREGON

CITY            SKY/WX      TMP DP  RH  WIND    PRES   REMARKS
BEND AIRPORT    SUNNY       54  30  40  NW14    30.07R
MADRAS AIRPORT  SUNNY       61  36  39  N17     30.10R
PRINEVILLE AP   SUNNY       55  34  45  N12     30.07R
REDMOND AIRPORT SUNNY       57  29  34  NW15    30.07R
#ASHWOOD SCHOOL N/A         57  34  42  NW2     30.03R
#BEND 1SW       N/A         51  32  48  NE3     N/A
#BEND-AWBREY    N/A         54  34  47  N5      30.06R
#BEND-KIM LN    N/A         54  35  48  N3      30.05R
#CULVER         N/A         55  33  43  N7      30.02R
#CULVER 8W      N/A         55  30  38  CALM    30.07R
#LAKE BILLY CHINN/A         56  N/A N/A SW3     30.14R
#MADRAS 4S      N/A         55  11  17  N7      30.15R
#POWELL BUTTE   N/A         54  36  50  N3      29.94R
#PRINEVILLE 3N  N/A         54  37  52  N10     30.04R

$$


ORZ509-280310-
EAST SLOPES OF OREGON CASCADES

CITY            SKY/WX      TMP DP  RH  WIND    PRES   REMARKS
SISTERS AWOS    N/A         54  34  47  W10     30.06R
#BLUE BOX PASS  N/A         41  N/A N/A NW3     N/A
#CAMP SHERMAN   N/A         51  32  48  SE1     30.18R
#LA PINE DOT    N/A         53  21  28  NW10    N/A
#LA PINE 4NW    N/A         51  31  46  W5      30.09R
#LAVA BUTTE DOT N/A         52  25  35  NW1     N/A
#SISTERS AIRPOR N/A         52  40  63  N5      30.17S
#SISTERS ODOT   N/A         53  N/A N/A SE8     N/A
#SISTERS 1NW    N/A         53  31  43  N12     N/A
#SISTERS 3N     N/A         51  29  42  W2      30.06S
#SUNRIVER       N/A         54  30  40  NE1     30.07R
#SUTTLE LK DOT  N/A         46  33  60  CALM    N/A
#TUMALO 3W      N/A         51  32  48  N15     29.93S
#WANOGA BUTTE D N/A         44  23  43  W8      N/A

$$

ORZ044-280310-
LOWER COLUMBIA BASIN...OREGON

CITY            SKY/WX      TMP DP  RH  WIND    PRES   REMARKS
HERMISTON       PTCLDY      66  37  34  W18     29.99R
#BOARDMAN SCHOOLN/A         65  40  40  SW15    29.99R
#ECHO 8SW       N/A         62  39  43  W9      30.01R
#I-84 EX 198 DOTN/A         64  35  34  E16     N/A
#UMATILLA SCHOOLN/A         65  48  54  W15     30.03S
#UMATILLA       N/A         66  40  38  SW13    29.92R
$$

ORZ507-280310-
NORTHERN FOOTHILLS OF THE BLUES

CITY            SKY/WX      TMP DP  RH  WIND    PRES   REMARKS
PENDLETON AIRPT PTCLDY      64  30  28  W14     30.00S
#ADAMS 3WNW     N/A         61  37  41  W5      29.99S
#ATHENA         N/A         60  36  41  CALM    30.02R
#CAYUSE         N/A         61  36  39  W8      29.98S
#HELIX SCHOOL   N/A         61  36  39  W5      29.99R
#HELIX 3N       N/A         57  37  47  N8      29.98S
#HOLDMAN 5SE    N/A         62  39  43  W8      30.00R
#HOLDMAN 6E     N/A         62  37  39  E6      29.80S
#M-F GROVE ELEM N/A         64  30  28  CALM    29.98S
#M-FREEWATER 5SEN/A         62  37  39  CALM    29.99S
#PENDLETON DNTN N/A         65  32  29  W2      30.01S
#PDT AQUATIC CTRN/A         63  32  31  W10     30.02S
#PDT SUNRIDGE   N/A         63  34  34  SW7     30.02R
#PENDLETON 7NW  N/A         63  40  43  W7      31.97S
#PILOT ROCK 1S  N/A         60  28  29  W5      30.03R
#PILOT ROCK     N/A         62  30  30  W7      30.04R
#TUTUILLA       N/A         61  35  38  CALM    30.00S
#UMAPINE 2E     N/A         66  41  40  CALM    29.96S
#WESTON SCHOOL  N/A         60  27  28  N7      29.88S

$$

ORZ508-280310-
SOUTHERN FOOTHILLS OF THE BLUES

CITY            SKY/WX      TMP DP  RH  WIND    PRES   REMARKS
LEXINGTON       SUNNY       59  34  39  W20G26  30.07R
#AJAX           N/A         54  31  41  SW13    27.81R
#CONDON SCHOOL  N/A         54  38  55  NW9     30.01S
#CONDON 5W      N/A         50  34  54  NW14    30.03S
#FOSSIL SCHOOL  N/A         57  36  45  W7      30.00R
#HEPPNER EOC    N/A         57  33  40  W13G25  29.97R
#HEPPNER 4NE    N/A         53  33  46  W15     30.03R
#LEXINGTON 2SE  N/A         61  35  38  W18G26  30.02R
#RUGGS 5NE      N/A         54  30  40  W15     30.27R
#RUGGS 2SW      N/A         54  33  45  NW15    30.05R

$$

ORZ502-503-280310-
BLUE MOUNTAINS

CITY            SKY/WX      TMP DP  RH  WIND    PRES   REMARKS
MEACHAM         SUNNY       52  22  31  VRB5    30.04R
#BATTLE MTN DOT N/A         48  33  56  CALM    N/A
#CUTSFORTH PARK N/A         48  32  54  CALM    29.82R
#GREENHORN 9SW  N/A         55  31  40  W2      26.21S
#HARDMAN 10S    N/A         61  34  36  N5      30.22S
#HEPPNER 15SE   N/A         47  31  53  N3      29.97R
#LADD CYN SMT   N/A         54  23  30  N12     N/A
#LADD CREEK ODOTN/A         55  29  37  NE10    N/A
#LONG CREEK HS  N/A         54  34  47  CALM    N/A
#N POWDER DOT   N/A         54  32  43  N14     N/A
#PIKES PEAK     N/A         50  33  52  CALM    27.99S
#TOLLGATE       N/A         44  29  55  S5      29.90R
#TROY SCHOOL    N/A         61  36  39  W2      29.82R
#UKIAH          N/A         52  34  50  N8      29.94R
#WESTON 4E      N/A         54  33  45  SW5     29.99S
$$

ORZ505-280310-
JOHN DAY BASIN

CITY            SKY/WX      TMP DP  RH  WIND    PRES   REMARKS
JOHN DAY        N/A         N/A N/A N/A MISG    N/A
#DAYVILLE SCHOOLN/A         63  25  23  N6      29.98S
#MITCHELL       N/A         59  37  44  VRB2    30.19R
#MONUMENT HS    N/A         62  30  30  N8      29.98R
#MT. VERNON 5SE N/A         56  28  34  CALM    29.98R
#SPRAY SCHOOL   N/A         64  N/A N/A NE6     N/A
#WINLOCK        N/A         54  36  50  CALM    30.01R
$$

ORZ506-280310-
OCHOCO AND JOHN DAY HIGHLANDS

CITY            SKY/WX      TMP DP  RH  WIND    PRES   REMARKS
#BUCK CREEK DOT N/A         59  27  29  NW14    N/A
#HORSE RIDGE DO N/A         54  27  35  NW14    N/A
#KEYES SMT DOT  N/A         53  28  38  NW7     N/A
#PAULINA SCHOOL N/A         59  27  29  N8      N/A
#PINE MTN OBS   N/A         43  28  55  NW9G25  N/A
#PRAIRIE CITY   N/A         61  26  26  NW2     30.14S
#SENECA         N/A         55  N/A N/A N5      N/A
#SENECA 9NW     N/A         51  25  36  CALM    29.97R
$$

ORZ049-280310-
GRANDE RONDE VALLEY

CITY            SKY/WX      TMP DP  RH  WIND    PRES   REMARKS
LA GRANDE       SUNNY       57  27  31  N15     30.01R
#COVE           N/A         56  38  51  CALM    30.05R
#COVE SCHOOL    N/A         56  33  42  CALM    30.03S
#COVE 6NW       N/A         57  32  38  NW6     29.91R
#ELGIN 3N       N/A         58  25  28  W1      30.00R
#ELGIN 1E       N/A         59  31  34  CALM    N/A
#IMBLER SCHOOL  N/A         56  29  35  W8      29.98R
#ISLAND CITY 4N N/A         58  45  62  CALM    30.16S
#LADD CYN DOT   N/A         58  31  36  N10     N/A
#UNION 1S       N/A         59  31  34  NE1     29.90R
$$

ORZ050-280310-
WALLOWA COUNTY

CITY            SKY/WX      TMP DP  RH  WIND    PRES   REMARKS
JOSEPH AIRPORT  PTCLDY      52  30  43  N6      N/A
#ENTERPRISE AP  N/A         49  29  46  CALM    29.95R
#ENTERPRISE HS  N/A         53  34  48  NW5     30.03R
#IMNAHA SCHOOL  N/A         60  36  41  CALM    29.99R
#IMNAHA 10S     N/A         55  35  47  CALM    29.99R
#JOSEPH 3N      N/A         51  28  41  NW13    30.03S
#JOSEPH 3W      N/A         44  35  70  CALM    29.86R
#LOSTINE 3SE    N/A         52  31  44  N7      30.02R
#MT HOWARD 8000 N/A         32  27  82  NW5     30.05R
#PROMISE 1S     N/A         51  31  46  SE6     30.12R
#WALLOWA SCHOOL N/A         56  29  35  W3      29.99R



$$



USA.gov is the U.S. government's official web portal to all federal, state and local government web resources and services.